De Queen, AR

8:00 AM CDT on August 23, 2017 (GMT -0500)
Helms Sevier County

Weather History for KDEQ - September, 2013

Change the Weather History Date:

Tuesday, September 24, 2013

  Actual Average Record
Temperature  
Mean Temperature 75 °F 70 °F  
Max Temperature 92 °F 83 °F 98 °F (1939)
Min Temperature 57 °F 58 °F 37 °F (1989)
Degree Days  
Heating Degree Days 0 1  
Month to date heating degree days 0 1  
Since 1 July heating degree days 0 1  
Cooling Degree Days 10 6  
Month to date cooling degree days 317 244  
Year to date cooling degree days 1880 1836  
Growing Degree Days 24 (Base 50)    
Moisture  
Dew Point 56 °F    
Average Humidity 60    
Maximum Humidity 100    
Minimum Humidity 19    
Precipitation  
Precipitation 0.00 in 0.13 in 2.47 in (2005)
Month to date precipitation 4.88 2.90  
Year to date precipitation 25.18 34.49  
Snow  
Snow 0.00 in - - ()
Month to date snowfall 0.0  
Since 1 July snowfall 0.0  
Since 1 September snowfall 0.0  
Snow Depth 0.00 in    
Sea Level Pressure  
Sea Level Pressure 29.85 in    
Wind  
Wind Speed 3 mph (WNW)    
Max Wind Speed 16 mph    
Max Gust Speed 23 mph    
Visibility 7 miles    
Events      
T = Trace of Precipitation, MM = Missing Value Source: NWS Daily Summary

Daily Weather History Graph

Daily Weather History Graph

Search for Another Location

Airport or City:

Trip Planner

Search our weather history database for the weather conditions in past years. The results will help you decide how hot, cold, wet, or windy it might be!

Date:

Astronomy

Sep. 24, 2013 Rise Set
Actual Time 7:07 AM CDT 7:11 PM CDT
Civil Twilight 6:42 AM CDT 7:36 PM CDT
Nautical Twilight 6:13 AM CDT 8:05 PM CDT
Astronomical Twilight 5:43 AM CDT 8:34 PM CDT
Moon 10:43 PM CDT (9/24) 12:08 PM CDT (9/24)
Length of Visible Light 12h 53m
Length of Day
12h 03m
Waning Gibbous, 73% of the Moon is Illuminated
Sep 24
Waning Gibbous
Sep 26
Last Quarter
Oct 4
New
Oct 11
First Quarter
Oct 18
Full

Hourly Weather History & Observations

Time (CDT) Temp. Heat Index Dew Point Humidity Pressure Visibility Wind Dir Wind Speed Gust Speed Precip Events Conditions
12:53 AM 62.1 °F - 61.0 °F 96% 29.86 in 8.0 mi Calm Calm - N/A   Overcast
1:53 AM 62.1 °F - 60.1 °F 93% 29.86 in 8.0 mi Calm Calm - N/A   Clear
2:53 AM 61.0 °F - 60.1 °F 97% 29.86 in 6.0 mi Calm Calm - N/A   Clear
3:53 AM 60.1 °F - 59.0 °F 96% 29.86 in 5.0 mi Calm Calm - N/A   Clear
4:53 AM 59.0 °F - 57.9 °F 96% 29.86 in 5.0 mi Calm Calm - N/A   Clear
5:27 AM 59.0 °F - 57.9 °F 96% 29.88 in 2.5 mi Calm Calm - N/A   Clear
5:43 AM 59.0 °F - 57.9 °F 96% 29.87 in 5.0 mi Calm Calm - N/A   Clear
5:53 AM 59.0 °F - 57.9 °F 96% 29.86 in 2.5 mi Calm Calm - N/A   Clear
6:09 AM 59.0 °F - 57.9 °F 96% 29.87 in 4.0 mi Calm Calm - N/A   Clear
6:25 AM 59.0 °F - 57.9 °F 96% 29.87 in 2.0 mi Calm Calm - N/A   Clear
6:48 AM 57.2 °F - 57.2 °F 100% 29.87 in 5.0 mi Calm Calm - N/A   Clear
6:53 AM 57.9 °F - 57.9 °F 100% 29.86 in 2.5 mi Calm Calm - N/A   Clear
7:00 AM 57.9 °F - 57.0 °F 97% 29.88 in 0.8 mi Calm Calm - N/A   Clear
7:11 AM 57.9 °F - 57.0 °F 97% 29.87 in 2.0 mi Calm Calm - N/A   Clear
7:21 AM 57.9 °F - 57.9 °F 100% 29.88 in 4.0 mi Calm Calm - N/A   Clear
7:39 AM 57.9 °F - 57.9 °F 100% 29.88 in 1.8 mi Calm Calm - N/A   Clear
7:48 AM 59.0 °F - 59.0 °F 100% 29.88 in 3.0 mi Calm Calm - N/A   Clear
7:53 AM 59.0 °F - 59.0 °F 100% 29.87 in 3.0 mi Calm Calm - N/A   Clear
8:53 AM 66.0 °F - 62.1 °F 87% 29.87 in 10.0 mi Calm Calm - N/A   Clear
9:53 AM 73.0 °F - 62.1 °F 68% 29.87 in 10.0 mi Calm Calm - N/A   Clear
10:53 AM 82.0 °F 83.1 °F 63.0 °F 52% 29.87 in 10.0 mi West 9.2 mph - N/A   Clear
11:53 AM 84.9 °F 86.1 °F 64.0 °F 49% 29.86 in 10.0 mi WSW 9.2 mph - N/A   Clear
12:53 PM 87.1 °F 86.5 °F 59.0 °F 39% 29.84 in 10.0 mi NNW 10.4 mph 17.3 mph N/A   Clear
1:53 PM 90.0 °F 88.6 °F 57.0 °F 33% 29.81 in 10.0 mi West 6.9 mph 18.4 mph N/A   Clear
2:53 PM 91.0 °F 88.7 °F 54.0 °F 28% 29.80 in 10.0 mi WNW 10.4 mph - N/A   Clear
3:53 PM 91.9 °F - 50.0 °F 24% 29.78 in 10.0 mi NW 5.8 mph - N/A   Clear
4:53 PM 91.0 °F - 45.0 °F 20% 29.77 in 10.0 mi WNW 8.1 mph - N/A   Clear
5:53 PM 89.1 °F - 41.0 °F 19% 29.77 in 10.0 mi WNW 8.1 mph 20.7 mph N/A   Clear
6:53 PM 82.9 °F - 43.0 °F 24% 29.78 in 10.0 mi NW 3.5 mph - N/A   Clear
7:53 PM 77.0 °F - 48.0 °F 36% 29.79 in 10.0 mi North 3.5 mph - N/A   Clear
8:53 PM 73.0 °F - 51.1 °F 46% 29.81 in 10.0 mi Calm Calm - N/A   Clear
9:53 PM 64.0 °F - 55.9 °F 75% 29.82 in 10.0 mi Calm Calm - N/A   Clear
10:53 PM 62.1 °F - 55.9 °F 80% 29.83 in 10.0 mi Calm Calm - N/A   Clear
11:53 PM 60.1 °F - 55.9 °F 86% 29.83 in 10.0 mi Calm Calm - N/A   Clear